Regional Weather Roundup
Issued by NWS

Home | Current Version | Previous Version | Text Only | Print | Product List | Glossary Off
Versions: 1 2 3 4 5 6 7 8 9 10 11 12 13 14 15 16 17 18 19 20 21 22 23 24 25 26 27 28 29 30 31 32 33 34 35 36 37 38 39 40 41 42 43 44 45 46 47 48 49 50

000
ASUS43 KTOP 070559
RWRKS

WEATHER ROUNDUP FOR KANSAS
NATIONAL WEATHER SERVICE GOODLAND KS
1200 AM CST SUN FEB 07 2016

NOTE:  "FAIR" INDICATES FEW OR NO CLOUDS BELOW 12,000 FEET WITH NO
SIGNIFICANT WEATHER AND/OR OBSTRUCTIONS TO VISIBILITY.

KSZ001>006-013>018-027>032-041>047-070700-
NORTHWEST KANSAS

CITY           SKY/WX    TMP DP  RH WIND       PRES   REMARKS
GOODLAND       CLOUDY    33  24  69 N9        30.11R
6HR MIN TEMP:  33; 6HR MAX TEMP:  39;

HAYS           CLOUDY    36  18  48 W12G18    30.04F WCI  27
HILL CITY      CLOUDY    37  27  67 W12       30.06R WCI  29
6HR MIN TEMP:  36; 6HR MAX TEMP:  40;

RUSSELL        CLOUDY    35  25  66 SW17      30.01F WCI  25
6HR MIN TEMP:  35; 6HR MAX TEMP:  39;

$$

KSZ061>065-074>080-084>089-070700-
SOUTHWEST KANSAS

CITY           SKY/WX    TMP DP  RH WIND       PRES   REMARKS
DODGE CITY     CLEAR     37  14  38 SW16      30.08S WCI  28
6HR MIN TEMP:  34; 6HR MAX TEMP:  46;

ELKHART          N/A     37  10  32 SW14        N/A  WCI  28
GARDEN CITY    CLEAR     34  17  50 W12       30.07F WCI  25
6HR MIN TEMP:  32; 6HR MAX TEMP:  45;

GREAT BEND     CLEAR     34  18  51 SW9       30.06F
LIBERAL        CLEAR     32  12  43 SW12      30.10S WCI  23
$$

KSZ066>073-081>083-090>101-070700-
SOUTHEAST KANSAS

CITY           SKY/WX    TMP DP  RH WIND       PRES   REMARKS
CHANUTE        CLEAR     37  28  70 SW13      30.15F WCI  29
6HR MIN TEMP:  34; 6HR MAX TEMP:  44;

COFFEYVILLE    PTCLDY    37  28  70 S9        30.18F
6HR MIN TEMP:  36; 6HR MAX TEMP:  47;

HUTCHINSON     CLOUDY    36  24  62 S9        30.09F
6HR MIN TEMP:  35; 6HR MAX TEMP:  46;

MEDICINE LODGE   N/A     34  20  56 S5        30.12S
NEWTON         PTCLDY    37  23  56 SW16      30.11S WCI  28
PARSONS        CLOUDY    38  28  67 S7        30.17F
6HR MIN TEMP:  35; 6HR MAX TEMP:  46;

WICHITA INTL   PTCLDY    39  26  59 SW14      30.12F WCI  31
6HR MIN TEMP:  36; 6HR MAX TEMP:  44;

WICHITA JABRA  PTCLDY    41  25  53 SW17      30.12S
6HR MIN TEMP:  39; 6HR MAX TEMP:  44;

WINFIELD       CLEAR     35  27  72 S8        30.16F
6HR MIN TEMP:  32; 6HR MAX TEMP:  40;

$$

KSZ007>012-019>026-033>040-048>060-102>105-070700-
NORTHEAST KANSAS

CITY           SKY/WX    TMP DP  RH WIND       PRES   REMARKS
CONCORDIA      CLOUDY    39  22  50 W12       30.00S WCI  32
6HR MIN TEMP:  38; 6HR MAX TEMP:  41;

EMPORIA        PTCLDY    39  25  57 S20       30.08F WCI  29
6HR MIN TEMP:  34; 6HR MAX TEMP:  39;

LAWRENCE       PTCLDY    40  26  57 SW9       30.09F
6HR MIN TEMP:  38; 6HR MAX TEMP:  43;

MANHATTAN      CLEAR     38  27  64 SW10      30.04F WCI  31
6HR MIN TEMP:  36; 6HR MAX TEMP:  42;

OLATHE IND     PTCLDY    39  27  62 S18G24    30.09F WCI  30
6HR MIN TEMP:  36; 6HR MAX TEMP:  41;

OLATHE EXE     PTCLDY    37  27  67 S12       30.09S WCI  29
6HR MIN TEMP:  37; 6HR MAX TEMP:  43;

SALINA         CLEAR     40  22  48 S14       30.05F WCI  32
6HR MIN TEMP:  39; 6HR MAX TEMP:  47;

TOPEKA BILLARD CLOUDY    41  26  55 S9G24     30.07F
6HR MIN TEMP:  40; 6HR MAX TEMP:  47;

TOPEKA FORBES  CLOUDY    40  27  59 SW13      30.06F WCI  32
6HR MIN TEMP:  38; 6HR MAX TEMP:  43;

$$



USA.gov is the U.S. government's official web portal to all federal, state and local government web resources and services.